Flag for South Korea Weather past 2 weeks in Busan, South Korea

Now
61 °F

Clear.


Feels Like: 61 °F
Forecast: 64 / 76 °F
Wind: 1 mph from Northwest

Location: Pusan / Kimhae International Airport

Current Time: Oct 2, 2014 at 5:51:51 AM

Latest Report: Oct 2, 2014 at 5:00 AM


Visibility: 10 mi

Pressure: 29.92 "Hg

Humidity: 88%

Dew point: 57 °F

Location of BusanLocation

Historic Weather in Busan — Graph

°F

Busan temperature yesterday

Maximum temperature yesterday: 73 °F (at 1:00 PM)
Minimum temperature yesterday: 59 °F (at 6:00 AM)
Average temperature yesterday: 66 °F

Past Weeks' High & Low Weather Summary

 TemperatureHumidityPressure
High82 °F (Sep 22, 2:00 PM)94% (Sep 18, 2:00 AM)30.11 "Hg (Sep 18, 2:00 AM)
Low59 °F (Sep 20, 5:00 AM)30% (Sep 20, 2:00 PM)29.59 "Hg (Sep 24, 3:00 PM)
Average70 °F73%29.98 "Hg
* Reported Sep 17 4:00 AM — Oct 2 4:00 AM, Busan, Weather by CustomWeather, © 2014

Note: Actual official high and low records may vary slightly from our data, if they occured in-between our weather recording intervals... More about our weather records

Advertising

Busan weather history for previous 24 hours

 ConditionsComfort  
Time TempWeatherWind HumidityBarometerVisibility
4:00 AM
Oct 2
61 °FPassing clouds.3 mph88%29.92 "HgN/A
3:00 AM61 °FPassing clouds.1 mph88%29.94 "HgN/A
2:00 AM61 °FPassing clouds.3 mph88%29.97 "HgN/A
1:00 AM61 °FClear.5 mph88%29.98 "HgN/A
11:00 PM
Oct 1
61 °FClear.6 mph88%30.01 "Hg10 mi
10:00 PM63 °FClear.7 mph83%30.01 "Hg10 mi
9:00 PM64 °FClear.8 mph78%30.04 "Hg10 mi
8:00 PM66 °FClear.10 mph73%30.01 "Hg10 mi
7:00 PM68 °FClear.8 mph69%30.01 "Hg10 mi
6:00 PM70 °FPassing clouds.10 mph64%30.01 "HgN/A
5:00 PM72 °FPassing clouds.12 mph61%30.01 "HgN/A
4:00 PM73 °FPassing clouds.8 mph57%29.98 "HgN/A
3:00 PM73 °FScattered clouds.9 mph57%30.01 "HgN/A
2:00 PM72 °FPartly sunny.8 mph61%30.04 "HgN/A
1:00 PM73 °FPartly sunny.6 mph57%30.04 "HgN/A
12:00 PM72 °FScattered clouds.9 mph61%30.07 "HgN/A
11:00 AM70 °FPartly sunny.12 mph64%30.09 "HgN/A
10:00 AM70 °FBroken clouds.10 mph64%30.09 "HgN/A
9:00 AM68 °FPartly sunny.8 mph69%30.09 "HgN/A
8:00 AM64 °FPartly sunny.5 mph78%30.09 "HgN/A
7:00 AM63 °FSunny.7 mph77%30.07 "Hg10 mi
6:00 AM59 °FClear.3 mph88%30.07 "Hg10 mi
5:00 AM61 °FClear.5 mph88%30.07 "Hg10 mi
Weather by CustomWeather, © 2014

See weather overviewHow to use our weather pages